Location: Chevoux
(46.3801°N, 4.9476°E)
Time: 12:11:01
(UTC+00:00)

Tiros 1 despin weight - All Passes

Search period start: 13 May 2021 00:00
Search period end: 23 May 2021 00:00
Orbit: 593 x 642 km, 48.2° (Epoch: 12 May)

Date Brightness Start Highest point End Pass type
(mag) Time Alt. Az. Time Alt. Az. Time Alt. Az.
13 May - 01:33:13 10° WNW 01:37:39 43° SSW 01:42:01 10° SE visible
13 May - 03:17:35 10° WSW 03:18:18 10° SW 03:19:01 10° SW visible
13 May - 19:04:09 10° SSW 19:07:59 26° SE 19:11:51 10° E daylight
13 May - 20:44:27 10° WSW 20:49:07 78° SSE 20:53:50 10° ENE visible
13 May - 22:26:09 10° W 22:30:50 70° N 22:35:32 10° E visible
14 May - 00:07:51 10° WNW 00:12:34 80° SSW 00:17:14 10° ESE visible
14 May - 01:49:49 10° W 01:53:43 26° SW 01:57:35 10° SSE visible
14 May - 19:19:40 10° SW 19:24:03 41° SSE 19:28:28 10° ENE daylight
14 May - 21:00:46 10° W 21:05:28 82° NNW 21:10:12 10° ENE visible
14 May - 22:42:33 10° WNW 22:47:16 74° N 22:51:57 10° E visible
15 May - 00:24:13 10° WNW 00:28:49 56° SSW 00:33:23 10° SE visible
15 May - 02:06:57 10° W 02:09:41 15° SW 02:12:22 10° S night (unlit)
15 May - 17:56:04 10° S 17:59:17 19° SE 18:02:31 10° E daylight
15 May - 19:35:38 10° SW 19:40:14 64° SSE 19:44:54 10° ENE visible
15 May - 21:17:10 10° W 21:21:52 71° N 21:26:34 10° E visible
15 May - 22:58:55 10° WNW 23:03:38 88° NNE 23:08:21 10° ESE visible
16 May - 00:40:41 10° W 00:44:58 35° SW 00:49:12 10° SSE visible
16 May - 18:11:11 10° SSW 18:15:16 31° SE 18:19:24 10° E daylight
16 May - 19:51:51 10° WSW 19:56:31 87° SSE 20:01:14 10° ENE visible
16 May - 21:33:35 10° W 21:38:16 70° N 21:42:59 10° E visible
16 May - 23:15:16 10° WNW 23:19:57 70° SSW 23:24:36 10° ESE visible
17 May - 00:57:26 10° W 01:00:59 21° SW 01:04:31 10° S visible
17 May - 16:48:29 10° SSE 16:50:37 13° SE 16:52:45 10° ESE daylight
17 May - 18:26:54 10° SW 18:31:23 50° SSE 18:35:55 10° ENE daylight
17 May - 20:08:12 10° W 20:12:53 76° N 20:17:36 10° ENE visible
17 May - 21:49:58 10° WNW 21:54:41 78° NNE 21:59:24 10° E visible
17 May - 23:31:40 10° WNW 23:36:10 47° SSW 23:40:38 10° SE visible
18 May - 01:15:08 10° WSW 01:16:53 12° SW 01:18:38 10° SSW night (unlit)
18 May - 17:02:54 10° SSW 17:06:32 23° SE 17:10:11 10° E daylight
18 May - 18:42:58 10° WSW 18:47:37 74° SSE 18:52:18 10° ENE daylight
18 May - 20:24:37 10° W 20:29:17 70° N 20:34:00 10° E visible
18 May - 22:06:19 10° WNW 22:11:03 84° SSW 22:15:44 10° ESE visible
18 May - 23:48:12 10° W 23:52:15 29° SW 23:56:17 10° SSE visible
19 May - 17:18:18 10° SW 17:22:34 38° SSE 17:26:53 10° E daylight
19 May - 18:59:16 10° WSW 19:03:56 85° NNW 19:08:38 10° ENE daylight
19 May - 20:41:01 10° W 20:45:43 72° N 20:50:24 10° E visible
19 May - 22:22:41 10° WNW 22:27:18 60° SSW 22:31:55 10° SE visible
20 May - 00:05:10 10° W 00:08:14 17° SW 00:11:16 10° S visible
20 May - 15:54:57 10° S 15:57:50 17° SE 16:00:45 10° E daylight
20 May - 17:34:11 10° SW 17:38:43 59° SSE 17:43:19 10° ENE daylight
20 May - 19:15:39 10° W 19:20:19 73° N 19:25:01 10° E daylight
20 May - 20:57:23 10° WNW 21:02:06 84° NNE 21:06:49 10° ESE visible
20 May - 22:39:07 10° W 22:43:29 39° SSW 22:47:49 10° SE visible
21 May - 16:09:53 10° SSW 16:13:48 28° SE 16:17:46 10° E daylight
21 May - 17:50:22 10° WSW 17:54:59 83° SSE 17:59:41 10° ENE daylight
21 May - 19:32:04 10° W 19:36:43 70° N 19:41:25 10° E daylight
21 May - 21:13:44 10° WNW 21:18:25 75° SSW 21:23:06 10° ESE visible
21 May - 22:55:47 10° W 22:59:31 24° SW 23:03:15 10° SSE visible
22 May - 14:47:47 10° SSE 14:49:11 11° SE 14:50:36 10° ESE daylight
22 May - 16:25:31 10° SW 16:29:53 45° SSE 16:34:20 10° ENE daylight
22 May - 18:06:42 10° W 18:11:20 79° N 18:16:03 10° ENE daylight
22 May - 19:48:27 10° WNW 19:53:08 76° N 19:57:50 10° E visible
22 May - 21:30:06 10° WNW 21:34:39 51° SSW 21:39:11 10° SE visible
22 May - 23:13:08 10° WSW 23:15:27 14° SW 23:17:46 10° SSW visible
